Time,TemperatureF,DewpointF,PressureIn,WindDirection,WindDirectionDegrees,WindSpeedMPH,WindSpeedGustMPH,Humidity,HourlyPrecipIn,Conditions,Clouds,dailyrainin,SoftwareType,DateUTC
2013-05-19 00:07:00,44.9,27.0,29.94,South,184,0.0,2.0,49,0.00,,,0.00,weatherlink.com 1.10,2013-05-19 07:07:00,
2013-05-19 00:22:00,44.0,27.0,29.94,South,184,0.0,2.0,51,0.00,,,0.00,weatherlink.com 1.10,2013-05-19 07:22:00,
2013-05-19 00:37:00,43.3,27.0,29.95,South,184,0.0,1.0,52,0.00,,,0.00,weatherlink.com 1.10,2013-05-19 07:37:00,
2013-05-19 00:52:00,42.6,26.0,29.95,South,184,0.0,1.0,53,0.00,,,0.00,weatherlink.com 1.10,2013-05-19 07:52:00,
2013-05-19 01:07:00,42.0,26.0,29.94,South,184,0.0,1.0,54,0.00,,,0.00,weatherlink.com 1.10,2013-05-19 08:07:00,
2013-05-19 01:22:00,41.5,26.0,29.94,South,184,0.0,1.0,55,0.00,,,0.00,weatherlink.com 1.10,2013-05-19 08:22:00,
2013-05-19 01:37:00,41.0,26.0,29.94,South,184,1.0,1.0,56,0.00,,,0.00,weatherlink.com 1.10,2013-05-19 08:37:00,
2013-05-19 01:52:00,40.6,26.0,29.94,South,184,0.0,2.0,57,0.00,,,0.00,weatherlink.com 1.10,2013-05-19 08:52:00,
2013-05-19 02:07:00,40.6,26.0,29.94,South,184,0.0,2.0,57,0.00,,,0.00,weatherlink.com 1.10,2013-05-19 09:07:00,
2013-05-19 02:22:00,40.6,26.0,29.94,South,184,0.0,1.0,57,0.00,,,0.00,weatherlink.com 1.10,2013-05-19 09:22:00,
2013-05-19 02:37:00,40.5,27.0,29.94,South,184,0.0,1.0,58,0.00,,,0.00,weatherlink.com 1.10,2013-05-19 09:37:00,
2013-05-19 02:52:00,40.8,27.0,29.94,South,184,0.0,2.0,58,0.00,,,0.00,weatherlink.com 1.10,2013-05-19 09:52:00,
2013-05-19 03:07:00,41.1,27.0,29.94,South,184,0.0,1.0,58,0.00,,,0.00,weatherlink.com 1.10,2013-05-19 10:07:00,
2013-05-19 03:22:00,41.1,28.0,29.94,South,184,0.0,0.0,59,0.00,,,0.00,weatherlink.com 1.10,2013-05-19 10:22:00,
2013-05-19 03:37:00,41.0,27.0,29.94,South,184,0.0,1.0,59,0.00,,,0.00,weatherlink.com 1.10,2013-05-19 10:37:00,
2013-05-19 03:52:00,40.9,27.0,29.94,South,184,0.0,1.0,59,0.00,,,0.00,weatherlink.com 1.10,2013-05-19 10:52:00,
2013-05-19 04:07:00,40.9,28.0,29.93,South,184,0.0,1.0,60,0.00,,,0.00,weatherlink.com 1.10,2013-05-19 11:07:00,
2013-05-19 04:22:00,40.7,28.0,29.94,South,184,1.0,1.0,60,0.00,,,0.00,weatherlink.com 1.10,2013-05-19 11:22:00,
2013-05-19 04:37:00,40.8,28.0,29.94,South,184,0.0,3.0,60,0.00,,,0.00,weatherlink.com 1.10,2013-05-19 11:37:00,
2013-05-19 04:52:00,40.2,28.0,29.93,South,184,0.0,1.0,61,0.00,,,0.00,weatherlink.com 1.10,2013-05-19 11:52:00,
2013-05-19 05:07:00,39.5,28.0,29.93,South,184,0.0,1.0,63,0.00,,,0.00,weatherlink.com 1.10,2013-05-19 12:07:00,
2013-05-19 05:22:00,38.7,27.0,29.93,South,184,0.0,1.0,64,0.00,,,0.00,weatherlink.com 1.10,2013-05-19 12:22:00,
2013-05-19 05:37:00,38.1,27.0,29.94,South,184,0.0,2.0,65,0.00,,,0.00,weatherlink.com 1.10,2013-05-19 12:37:00,
2013-05-19 05:52:00,37.9,27.0,29.94,South,184,0.0,1.0,66,0.00,,,0.00,weatherlink.com 1.10,2013-05-19 12:52:00,
2013-05-19 06:07:00,37.9,28.0,29.95,South,184,0.0,1.0,67,0.00,,,0.00,weatherlink.com 1.10,2013-05-19 13:07:00,
2013-05-19 06:22:00,39.0,29.0,29.95,South,184,0.0,1.0,67,0.00,,,0.00,weatherlink.com 1.10,2013-05-19 13:22:00,
2013-05-19 06:37:00,40.9,30.0,29.95,South,184,0.0,1.0,66,0.00,,,0.00,weatherlink.com 1.10,2013-05-19 13:37:00,
2013-05-19 06:52:00,43.7,32.0,29.95,South,184,0.0,1.0,63,0.00,,,0.00,weatherlink.com 1.10,2013-05-19 13:52:00,
2013-05-19 07:08:00,46.8,33.0,29.95,South,184,0.0,1.0,60,0.00,,,0.00,weatherlink.com 1.10,2013-05-19 14:08:00,
2013-05-19 07:23:00,49.1,33.0,29.95,South,184,0.0,-999.0,54,-99.99,,,0.00,weatherlink.com 1.10,2013-05-19 14:23:00,
2013-05-19 07:38:00,51.2,34.0,29.95,South,184,0.0,2.0,52,0.00,,,0.00,weatherlink.com 1.10,2013-05-19 14:38:00,
2013-05-19 07:53:00,53.5,34.0,29.95,SE,128,0.0,3.0,47,0.00,,,0.00,weatherlink.com 1.10,2013-05-19 14:53:00,
2013-05-19 08:08:00,55.0,34.0,29.94,SW,235,0.0,4.0,45,0.00,,,0.00,weatherlink.com 1.10,2013-05-19 15:08:00,
2013-05-19 08:23:00,56.4,33.0,29.94,WSW,255,1.0,5.0,41,0.00,,,0.00,weatherlink.com 1.10,2013-05-19 15:23:00,
2013-05-19 08:38:00,57.5,33.0,29.94,WSW,239,0.0,4.0,39,0.00,,,0.00,weatherlink.com 1.10,2013-05-19 15:38:00,
2013-05-19 08:53:00,58.6,32.0,29.94,SW,229,3.0,7.0,37,0.00,,,0.00,weatherlink.com 1.10,2013-05-19 15:53:00,
2013-05-19 09:08:00,59.9,32.0,29.93,WSW,244,1.0,7.0,35,0.00,,,0.00,weatherlink.com 1.10,2013-05-19 16:08:00,
2013-05-19 09:23:00,59.7,31.0,29.93,WSW,242,5.0,8.0,34,0.00,,,0.00,weatherlink.com 1.10,2013-05-19 16:23:00,
2013-05-19 09:38:00,60.7,31.0,29.93,SSW,197,3.0,9.0,33,0.00,,,0.00,weatherlink.com 1.10,2013-05-19 16:38:00,
2013-05-19 09:53:00,61.9,32.0,29.93,SSW,206,1.0,6.0,32,0.00,,,0.00,weatherlink.com 1.10,2013-05-19 16:53:00,
2013-05-19 10:08:00,61.4,31.0,29.92,West,262,4.0,9.0,32,0.00,,,0.00,weatherlink.com 1.10,2013-05-19 17:08:00,
2013-05-19 10:23:00,61.8,31.0,29.92,West,276,3.0,13.0,31,0.00,,,0.00,weatherlink.com 1.10,2013-05-19 17:23:00,
2013-05-19 10:38:00,63.1,29.0,29.92,South,190,4.0,10.0,28,0.00,,,0.00,weatherlink.com 1.10,2013-05-19 17:38:00,
2013-05-19 10:53:00,63.8,31.0,29.91,West,273,7.0,10.0,29,0.00,,,0.00,weatherlink.com 1.10,2013-05-19 17:53:00,
2013-05-19 11:08:00,64.7,29.0,29.91,SW,231,4.0,8.0,26,0.00,,,0.00,weatherlink.com 1.10,2013-05-19 18:08:00,
2013-05-19 11:23:00,65.0,29.0,29.90,South,191,2.0,9.0,26,0.00,,,0.00,weatherlink.com 1.10,2013-05-19 18:23:00,
2013-05-19 11:38:00,65.7,26.0,29.90,South,190,9.0,15.0,22,0.00,,,0.00,weatherlink.com 1.10,2013-05-19 18:38:00,
2013-05-19 11:53:00,65.8,27.0,29.89,WNW,282,8.0,15.0,23,0.00,,,0.00,weatherlink.com 1.10,2013-05-19 18:53:00,
2013-05-19 12:09:00,66.3,26.0,29.88,West,270,6.0,13.0,22,0.00,,,0.00,weatherlink.com 1.10,2013-05-19 19:09:00,
2013-05-19 12:24:00,67.5,29.0,29.87,SSW,212,8.0,9.0,24,0.00,,,0.00,weatherlink.com 1.10,2013-05-19 19:24:00,
2013-05-19 12:39:00,68.3,29.0,29.87,WSW,252,3.0,12.0,23,0.00,,,0.00,weatherlink.com 1.10,2013-05-19 19:39:00,
2013-05-19 12:54:00,68.2,29.0,29.86,SSW,205,3.0,9.0,23,0.00,,,0.00,weatherlink.com 1.10,2013-05-19 19:54:00,
2013-05-19 13:09:00,67.0,29.0,29.86,SW,231,9.0,16.0,24,0.00,,,0.00,weatherlink.com 1.10,2013-05-19 20:09:00,
2013-05-19 13:24:00,68.8,29.0,29.86,SSW,210,2.0,9.0,23,0.00,,,0.00,weatherlink.com 1.10,2013-05-19 20:24:00,
2013-05-19 13:39:00,68.1,30.0,29.84,SSW,205,2.0,12.0,24,0.00,,,0.00,weatherlink.com 1.10,2013-05-19 20:39:00,
2013-05-19 13:54:00,69.3,29.0,29.84,SW,222,2.0,8.0,22,0.00,,,0.00,weatherlink.com 1.10,2013-05-19 20:54:00,
2013-05-19 14:09:00,70.3,28.0,29.84,SW,214,3.0,14.0,21,0.00,,,0.00,weatherlink.com 1.10,2013-05-19 21:09:00,
2013-05-19 14:24:00,70.8,25.0,29.83,WSW,248,9.0,12.0,18,0.00,,,0.00,weatherlink.com 1.10,2013-05-19 21:24:00,
2013-05-19 14:39:00,69.8,24.0,29.82,West,268,6.0,12.0,18,0.00,,,0.00,weatherlink.com 1.10,2013-05-19 21:39:00,
2013-05-19 14:54:00,70.3,26.0,29.82,SW,218,4.0,12.0,19,0.00,,,0.00,weatherlink.com 1.10,2013-05-19 21:54:00,
2013-05-19 15:09:00,70.9,25.0,29.81,West,262,8.0,15.0,18,0.00,,,0.00,weatherlink.com 1.10,2013-05-19 22:09:00,
2013-05-19 15:24:00,71.4,26.0,29.80,SSW,195,6.0,9.0,18,0.00,,,0.00,weatherlink.com 1.10,2013-05-19 22:24:00,
2013-05-19 15:39:00,71.4,26.0,29.80,SW,214,4.0,15.0,18,0.00,,,0.00,weatherlink.com 1.10,2013-05-19 22:39:00,
2013-05-19 15:54:00,70.7,25.0,29.80,SSW,195,1.0,14.0,18,0.00,,,0.00,weatherlink.com 1.10,2013-05-19 22:54:00,
2013-05-19 16:09:00,71.2,24.0,29.80,WSW,246,2.0,16.0,17,0.00,,,0.00,weatherlink.com 1.10,2013-05-19 23:09:00,
2013-05-19 16:24:00,71.2,25.0,29.80,WSW,256,6.0,14.0,18,0.00,,,0.00,weatherlink.com 1.10,2013-05-19 23:24:00,
2013-05-19 16:39:00,70.5,25.0,29.79,SW,235,4.0,12.0,18,0.00,,,0.00,weatherlink.com 1.10,2013-05-19 23:39:00,
2013-05-19 16:54:00,70.3,25.0,29.80,WSW,238,6.0,14.0,18,0.00,,,0.00,weatherlink.com 1.10,2013-05-19 23:54:00,
2013-05-19 17:09:00,69.5,25.0,29.80,West,266,4.0,16.0,19,0.00,,,0.00,weatherlink.com 1.10,2013-05-20 00:09:00,
2013-05-19 17:24:00,68.8,25.0,29.80,SSW,208,8.0,14.0,19,0.00,,,0.00,weatherlink.com 1.10,2013-05-20 00:24:00,
2013-05-19 17:39:00,68.4,24.0,29.79,SW,233,3.0,11.0,19,0.00,,,0.00,weatherlink.com 1.10,2013-05-20 00:39:00,
2013-05-19 17:54:00,68.5,25.0,29.80,SW,217,2.0,11.0,19,0.00,,,0.00,weatherlink.com 1.10,2013-05-20 00:54:00,
2013-05-19 18:09:00,67.7,24.0,29.80,West,264,3.0,11.0,19,0.00,,,0.00,weatherlink.com 1.10,2013-05-20 01:09:00,
2013-05-19 18:24:00,67.1,23.0,29.81,West,265,2.0,13.0,19,0.00,,,0.00,weatherlink.com 1.10,2013-05-20 01:24:00,
2013-05-19 18:39:00,66.0,24.0,29.81,WSW,253,3.0,7.0,20,0.00,,,0.00,weatherlink.com 1.10,2013-05-20 01:39:00,
2013-05-19 18:54:00,64.9,23.0,29.82,West,277,2.0,13.0,20,0.00,,,0.00,weatherlink.com 1.10,2013-05-20 01:54:00,
2013-05-19 19:09:00,64.0,24.0,29.83,WNW,293,3.0,11.0,22,0.00,,,0.00,weatherlink.com 1.10,2013-05-20 02:09:00,
2013-05-19 19:24:00,63.1,23.0,29.84,West,259,0.0,9.0,22,0.00,,,0.00,weatherlink.com 1.10,2013-05-20 02:24:00,
2013-05-19 19:39:00,62.2,23.0,29.84,SW,226,2.0,5.0,22,0.00,,,0.00,weatherlink.com 1.10,2013-05-20 02:39:00,
2013-05-19 19:54:00,61.4,23.0,29.86,WNW,301,0.0,5.0,23,0.00,,,0.00,weatherlink.com 1.10,2013-05-20 02:54:00,
2013-05-19 20:09:00,60.5,23.0,29.87,SW,219,0.0,1.0,24,0.00,,,0.00,weatherlink.com 1.10,2013-05-20 03:09:00,
2013-05-19 20:24:00,59.4,22.0,29.88,NW,319,0.0,4.0,24,0.00,,,0.00,weatherlink.com 1.10,2013-05-20 03:24:00,
2013-05-19 20:39:00,59.0,22.0,29.89,NNE,23,0.0,5.0,24,0.00,,,0.00,weatherlink.com 1.10,2013-05-20 03:39:00,
2013-05-19 20:55:00,58.2,21.0,29.89,NNW,346,0.0,3.0,24,0.00,,,0.00,weatherlink.com 1.10,2013-05-20 03:55:00,
2013-05-19 21:10:00,56.9,21.0,29.90,NW,325,1.0,3.0,25,0.00,,,0.00,weatherlink.com 1.10,2013-05-20 04:10:00,
2013-05-19 21:25:00,56.5,21.0,29.91,North,359,0.0,4.0,25,0.00,,,0.00,weatherlink.com 1.10,2013-05-20 04:25:00,
2013-05-19 21:40:00,56.0,19.0,29.91,NNE,16,0.0,6.0,24,0.00,,,0.00,weatherlink.com 1.10,2013-05-20 04:40:00,
2013-05-19 21:55:00,55.4,20.0,29.91,NE,37,1.0,3.0,25,0.00,,,0.00,weatherlink.com 1.10,2013-05-20 04:55:00,
2013-05-19 22:10:00,54.4,20.0,29.91,NE,37,0.0,1.0,26,0.00,,,0.00,weatherlink.com 1.10,2013-05-20 05:10:00,
2013-05-19 22:25:00,53.6,19.0,29.91,NW,321,0.0,5.0,26,0.00,,,0.00,weatherlink.com 1.10,2013-05-20 05:25:00,
2013-05-19 22:40:00,53.4,20.0,29.92,NNW,347,0.0,3.0,27,0.00,,,0.00,weatherlink.com 1.10,2013-05-20 05:40:00,
2013-05-19 22:55:00,53.3,22.0,29.92,NNW,345,1.0,5.0,29,0.00,,,0.00,weatherlink.com 1.10,2013-05-20 05:55:00,
2013-05-19 23:10:00,52.7,23.0,29.92,NNE,25,0.0,6.0,31,0.00,,,0.00,weatherlink.com 1.10,2013-05-20 06:10:00,
2013-05-19 23:25:00,51.9,23.0,29.92,North,359,0.0,6.0,32,0.00,,,0.00,weatherlink.com 1.10,2013-05-20 06:25:00,
2013-05-19 23:40:00,51.1,23.0,29.92,North,360,0.0,5.0,33,0.00,,,0.00,weatherlink.com 1.10,2013-05-20 06:40:00,
2013-05-19 23:55:00,50.9,24.0,29.91,ENE,68,2.0,8.0,35,0.00,,,0.00,weatherlink.com 1.10,2013-05-20 06:55:00,